Location: Sulphur Springs (historical)
(38.1246°N, 122.1900°W)
Time: 09:19:04
(UTC+00:00)

CZ-4B DEB - Pass Details

Date: 29 October 2020
Orbit: 840 x 862 km, 99.1° (Epoch: 23 November)

Event Time Altitude Azimuth Distance (km) Brightness Sun altitude
Rises 14:02:33 0° 13° (NNE) 3,417 7.4 -6.5°
Reaches altitude 10° 14:04:55 10° 13° (NNE) 2,475 6.7 -6.0°
Maximum altitude 14:10:25 89° 286° (WNW) 848 4.3 -5.0°
Drops below altitude 10° 14:15:52 10° 196° (SSW) 2,449 6.6 -3.9°
Sets 14:18:12 0° 196° (SSW) 3,378 7.3 -3.5°
